When you browse on this site, cookies collect data to enhance your experience and personalize the content and advertising you see.
Visit our Privacy Policy to learn more. By continuing to use the site, you agree to this use of cookies and data.
  • In Spain
  • List of Countries
  • For 7 days
  • Water Temperature
  • Weather Map
  • Weather Widgets
  • user-avatar
    Login

    Hourly Weather Bindura

    Today, 17 February, Monday

    Time Temperature Precipitation Wind Pressure Humidity
    00:00 +21°C° 1.2 mm 2 mps 668 mmHg 96%
    01:00 +21°C° 1.2 mm 2 mps 668 mmHg 97%
    02:00 +21°C° 0 mm 1 mps 668 mmHg 98%
    03:00 +21°C° 0.1 mm 1 mps 668 mmHg 98%
    04:00 +21°C° 0.1 mm 1 mps 668 mmHg 98%
    05:00 +18°C° 0.1 mm 0 mps 668 mmHg 99%
    06:00 +19°C° 0 mm 0 mps 668 mmHg 96%
    07:00 +22°C° 0 mm 1 mps 669 mmHg 94%
    08:00 +23°C° 0 mm 1 mps 670 mmHg 91%
    09:00 +24°C° 0 mm 1 mps 670 mmHg 86%
    10:00 +25°C° 0 mm 1 mps 670 mmHg 81%
    11:00 +26°C° 0 mm 1 mps 670 mmHg 76%
    12:00 +27°C° 0 mm 1 mps 669 mmHg 71%
    13:00 +27°C° 0 mm 2 mps 669 mmHg 67%
    14:00 +28°C° 0 mm 2 mps 668 mmHg 62%
    15:00 +28°C° 0 mm 2 mps 668 mmHg 65%
    16:00 +27°C° 0 mm 2 mps 667 mmHg 68%
    17:00 +27°C° 0 mm 2 mps 667 mmHg 71%
    18:00 +25°C° 0 mm 1 mps 667 mmHg 76%
    19:00 +24°C° 0 mm 1 mps 667 mmHg 81%
    20:00 +22°C° 0 mm 1 mps 667 mmHg 86%
    21:00 +21°C° 0 mm 1 mps 667 mmHg 88%
    22:00 +19°C° 0 mm 0 mps 668 mmHg 90%
    23:00 +19°C° 0 mm 0 mps 668 mmHg 92%

    Tomorrow, 18 February, Tuesday

    Time Temperature Precipitation Wind Pressure Humidity
    00:00 +18°C° 0 mm 0 mps 668 mmHg 93%
    01:00 +18°C° 0 mm 0 mps 667 mmHg 95%
    02:00 +18°C° 0 mm 0 mps 667 mmHg 96%
    03:00 +17°C° 0 mm 0 mps 667 mmHg 97%
    04:00 +17°C° 0 mm 0 mps 667 mmHg 97%
    05:00 +17°C° 0 mm 0 mps 667 mmHg 97%
    06:00 +18°C° 0 mm 0 mps 668 mmHg 93%
    07:00 +22°C° 0 mm 1 mps 669 mmHg 89%
    08:00 +23°C° 0 mm 1 mps 670 mmHg 84%
    09:00 +25°C° 0 mm 1 mps 670 mmHg 77%
    10:00 +26°C° 0 mm 2 mps 670 mmHg 69%
    11:00 +27°C° 0 mm 2 mps 670 mmHg 62%
    12:00 +28°C° 0 mm 2 mps 669 mmHg 58%
    13:00 +29°C° 0 mm 3 mps 669 mmHg 54%
    14:00 +29°C° 0 mm 3 mps 669 mmHg 50%
    15:00 +29°C° 0 mm 2 mps 668 mmHg 56%
    16:00 +28°C° 0 mm 2 mps 668 mmHg 62%
    17:00 +28°C° 0 mm 2 mps 667 mmHg 68%
    18:00 +26°C° 0 mm 2 mps 667 mmHg 74%
    19:00 +24°C° 0 mm 1 mps 668 mmHg 80%
    20:00 +21°C° 0 mm 1 mps 668 mmHg 86%
    21:00 +21°C° 0 mm 1 mps 668 mmHg 89%
    22:00 +20°C° 0 mm 1 mps 668 mmHg 91%
    23:00 +20°C° 0 mm 1 mps 668 mmHg 94%

    Day after tomorrow, 19 February, Wednesday

    Time Temperature Precipitation Wind Pressure Humidity
    00:00 +17°C° 0 mm 0 mps 668 mmHg 94%
    01:00 +17°C° 0 mm 0 mps 668 mmHg 93%
    02:00 +17°C° 0 mm 0 mps 668 mmHg 93%
    03:00 +17°C° 0 mm 0 mps 668 mmHg 93%
    04:00 +16°C° 0 mm 0 mps 668 mmHg 94%
    05:00 +16°C° 0 mm 0 mps 668 mmHg 94%
    06:00 +18°C° 0 mm 0 mps 668 mmHg 88%
    07:00 +21°C° 0 mm 1 mps 669 mmHg 83%
    08:00 +23°C° 0 mm 1 mps 670 mmHg 77%
    09:00 +25°C° 0 mm 1 mps 670 mmHg 70%
    10:00 +26°C° 0 mm 2 mps 670 mmHg 62%
    11:00 +28°C° 0 mm 3 mps 670 mmHg 55%
    12:00 +28°C° 0 mm 3 mps 670 mmHg 54%
    13:00 +29°C° 0 mm 2 mps 669 mmHg 53%
    14:00 +29°C° 0 mm 2 mps 669 mmHg 53%
    15:00 +29°C° 0 mm 2 mps 668 mmHg 57%
    16:00 +28°C° 0 mm 2 mps 668 mmHg 62%
    17:00 +28°C° 0 mm 1 mps 667 mmHg 67%
    18:00 +26°C° 0 mm 1 mps 667 mmHg 73%
    19:00 +24°C° 0 mm 1 mps 668 mmHg 79%
    20:00 +22°C° 0 mm 1 mps 668 mmHg 85%
    21:00 +21°C° 0 mm 1 mps 668 mmHg 88%
    22:00 +19°C° 0 mm 0 mps 668 mmHg 90%
    23:00 +18°C° 0 mm 0 mps 668 mmHg 92%

    20 February, Thursday

    Time Temperature Precipitation Wind Pressure Humidity
    00:00 +18°C° 0 mm 0 mps 668 mmHg 93%
    01:00 +18°C° 0 mm 0 mps 668 mmHg 94%
    02:00 +18°C° 0 mm 0 mps 667 mmHg 96%
    03:00 +18°C° 0 mm 0 mps 667 mmHg 95%
    04:00 +18°C° 0 mm 0 mps 668 mmHg 95%
    05:00 +18°C° 0 mm 0 mps 668 mmHg 95%
    06:00 +19°C° 0 mm 0 mps 668 mmHg 90%
    07:00 +21°C° 0 mm 0 mps 669 mmHg 85%
    08:00 +22°C° 0 mm 0 mps 669 mmHg 81%
    09:00 +24°C° 0.3 mm 0 mps 669 mmHg 76%
    10:00 +25°C° 0.3 mm 0 mps 669 mmHg 72%
    11:00 +29°C° 0.3 mm 1 mps 669 mmHg 67%
    12:00 +29°C° 0.8 mm 1 mps 669 mmHg 67%
    13:00 +29°C° 0.8 mm 1 mps 668 mmHg 67%
    14:00 +29°C° 0.8 mm 1 mps 667 mmHg 67%
    15:00 +29°C° 0.8 mm 1 mps 667 mmHg 71%
    16:00 +28°C° 0.8 mm 1 mps 666 mmHg 76%
    17:00 +27°C° 0.8 mm 1 mps 666 mmHg 80%
    18:00 +26°C° 0.4 mm 1 mps 666 mmHg 84%
    19:00 +24°C° 0.4 mm 1 mps 666 mmHg 88%
    20:00 +22°C° 0.4 mm 1 mps 666 mmHg 92%
    21:00 +22°C° 0.1 mm 1 mps 666 mmHg 93%
    22:00 +22°C° 0.1 mm 1 mps 667 mmHg 93%
    23:00 +19°C° 0.1 mm 0 mps 667 mmHg 94%

    21 February, Friday

    Time Temperature Precipitation Wind Pressure Humidity
    00:00 +19°C° 0 mm 0 mps 667 mmHg 94%
    01:00 +19°C° 0 mm 0 mps 667 mmHg 95%
    02:00 +19°C° 0 mm 0 mps 666 mmHg 95%
    03:00 +18°C° 0 mm 0 mps 666 mmHg 95%
    04:00 +18°C° 0 mm 0 mps 666 mmHg 96%
    05:00 +18°C° 0 mm 0 mps 667 mmHg 96%
    06:00 +19°C° 0 mm 0 mps 667 mmHg 93%
    07:00 +21°C° 0 mm 0 mps 668 mmHg 90%
    08:00 +22°C° 0 mm 0 mps 668 mmHg 86%
    15:00 +31°C° 0.3 mm 1 mps 667 mmHg 64%
    16:00 +29°C° 0.3 mm 1 mps 666 mmHg 70%
    17:00 +28°C° 0.3 mm 2 mps 665 mmHg 76%
    18:00 +26°C° 0.2 mm 1 mps 666 mmHg 81%
    19:00 +25°C° 0.2 mm 1 mps 666 mmHg 86%
    20:00 +21°C° 0.2 mm 0 mps 666 mmHg 90%
    21:00 +21°C° 0 mm 0 mps 666 mmHg 92%
    22:00 +20°C° 0 mm 0 mps 667 mmHg 93%
    23:00 +22°C° 0 mm 1 mps 667 mmHg 95%

    22 February, Saturday

    Time Temperature Precipitation Wind Pressure Humidity
    00:00 +20°C° 0 mm 0 mps 667 mmHg 95%
    01:00 +19°C° 0 mm 0 mps 666 mmHg 96%
    02:00 +19°C° 0 mm 0 mps 666 mmHg 96%
    03:00 +19°C° 0 mm 0 mps 666 mmHg 96%
    04:00 +19°C° 0 mm 0 mps 666 mmHg 97%
    05:00 +18°C° 0 mm 0 mps 666 mmHg 97%
    06:00 +20°C° 0 mm 0 mps 667 mmHg 94%
    07:00 +21°C° 0 mm 0 mps 668 mmHg 91%
    08:00 +22°C° 0 mm 0 mps 668 mmHg 89%
    09:00 +25°C° 0 mm 1 mps 668 mmHg 84%
    10:00 +26°C° 0 mm 1 mps 668 mmHg 78%
    11:00 +27°C° 0 mm 1 mps 668 mmHg 73%
    12:00 +28°C° 0.3 mm 1 mps 668 mmHg 71%
    13:00 +29°C° 0.3 mm 1 mps 667 mmHg 68%
    14:00 +30°C° 0.3 mm 1 mps 667 mmHg 65%
    15:00 +29°C° 0.5 mm 1 mps 666 mmHg 70%
    16:00 +28°C° 0.5 mm 1 mps 666 mmHg 74%
    17:00 +28°C° 0.5 mm 2 mps 665 mmHg 79%
    18:00 +26°C° 1.7 mm 1 mps 665 mmHg 84%
    19:00 +24°C° 1.7 mm 1 mps 665 mmHg 88%
    20:00 +23°C° 1.7 mm 1 mps 666 mmHg 93%
    21:00 +22°C° 1.6 mm 1 mps 666 mmHg 94%
    22:00 +20°C° 1.6 mm 0 mps 666 mmHg 94%
    23:00 +20°C° 1.6 mm 0 mps 667 mmHg 95%
    Show more